Regional Weather Roundup
Issued by NWS Cleveland, OH

Home | Current Version | Previous Version | Graphics & Text | Print | Product List | Glossary On
Versions: 1 2 3 4 5 6 7 8 9 10 11 12 13 14 15 16 17 18 19 20 21 22 23 24 25 26 27 28 29 30 31 32 33 34 35 36 37 38 39 40 41 42 43 44 45 46 47 48 49 50
000
ASUS41 KCLE 291112
RWRCLE
OHIO REGIONAL WEATHER ROUNDUP
NATIONAL WEATHER SERVICE WILMINGTON, OH
700 AM EDT MON MAY 29 2017

NOTE: "FAIR" INDICATES FEW OR NO CLOUDS BELOW 12,000 FEET WITH NO
SIGNIFICANT WEATHER AND/OR OBSTRUCTIONS TO VISIBILITY.

OHZ001>008-015>018-024>027-034-035-043-044-291200-
   NORTHWEST OHIO

CITY           SKY/WX    TMP DP  RH WIND       PRES   REMARKS
DEFIANCE       FAIR      55  55 100 SW5       29.83R FOG
FINDLAY        FAIR      61  57  87 SW6       29.83R
TOLEDO EXPRESS FAIR      57  57 100 SW6       29.81R
TOLEDO EXEC    FAIR      59  58  96 SW8       29.82R
LIMA           FAIR      60  58  92 SW9       29.86R
$$

OHZ009>014-019>023-028>033-038-089-291200-
   NORTHEAST OHIO

CITY           SKY/WX    TMP DP  RH WIND       PRES   REMARKS
CLE-HOPKINS    FAIR      61  58  90 SW7       29.83R
CLE-LAKEFRONT  FAIR      61  56  83 SW12      29.80R
CUY CO. ARPT   SUNNY     63  59  88 SW12      29.81
LORAIN-ELYRIA  FAIR      59  52  77 SW9       29.83R
ASHTABULA      PTSUNNY   61  60  97 SW8       29.80R
AKRON-CANTON   FAIR      59  56  89 SW7       29.84R
WOOSTER        FAIR      58  56  93 SW5       29.85R
MANSFIELD      FAIR      59  57  93 SW6       29.86R
YOUNGSTOWN     CLOUDY    60  57  89 SW10      29.82R
$$

OHZ042-051>053-060>062-070>072-077>081-291200-
  SOUTHWEST OHIO

CITY           SKY/WX    TMP DP  RH WIND       PRES   REMARKS
CINC-COVINGTON FOG       62  62 100 SW6       29.93R VSB<1/4
CINC-LUNKEN    FAIR      59  59 100 CALM      29.93R FOG
HAMILTON       FOG       59  59 100 CALM      29.94R VSB 1
DAYTON         FAIR      61  59  93 SW8       29.91R
WRIGHT-PAT AFB PTCLDY    60  60 100 S5        29.90R
DAYTON GENERAL CLOUDY    60  59  96 S6        29.92R FOG
WILMINGTON     CLOUDY    61  61 100 W8        29.91R FOG
$$

OHZ036-037-039>041-045>050-054>059-063>069-073>076-082>088-291200-
  CENTRAL AND SOUTHEAST OHIO

CITY           SKY/WX    TMP DP  RH WIND       PRES   REMARKS
COLUMBUS       FAIR      61  61 100 S3        29.88R
OSU AIRPORT    FAIR      61  61 100 SW8       29.88R
BOLTON FIELD   NOT AVBL
RICKENBACK AFB FAIR      60  61 100 SW6       29.88R
NEWARK         MOCLDY    61  58  90 CALM      29.88R
MARION         FAIR      60  58  92 SW8       29.86R FOG
LANCASTER      FAIR      64  60  87 CALM      29.89R
ZANESVILLE     FAIR      62  60  93 SW5       29.88R FOG
NEW PHILLY     FAIR      61  59  93 CALM      29.87R
$$




USA.gov is the U.S. government's official web portal to all federal, state and local government web resources and services.